| time (UTC) | temp F | wind direction | speed knots | gust knots | rain 1hr in | rain 24hr in | rain mn in | humidity % | barometer mb |
| 20260903193046 | 82 | 279 | 0.0 | 1.7 | 0.00 | 0.00 | 0.00 | 40 | 1012.2 |
| 20260903191552 | 82 | 279 | 1.7 | 5.2 | 0.00 | 0.00 | 0.00 | 39 | 1012.2 |
| 20260903190044 | 83 | 289 | 0.0 | 4.3 | 0.00 | 0.00 | 0.00 | 40 | 1012.1 |
| 20260903184552 | 83 | 299 | 0.9 | 5.2 | 0.00 | 0.00 | 0.00 | 40 | 1012.0 |
| 20260903183045 | 83 | 323 | 2.6 | 7.8 | 0.00 | 0.00 | 0.00 | 40 | 1011.7 |
| 20260903181544 | 84 | 329 | 1.7 | 7.0 | 0.00 | 0.00 | 0.00 | 40 | 1011.7 |
| 20260903180049 | 84 | 360 | 0.9 | 7.0 | 0.00 | 0.00 | 0.00 | 40 | 1011.5 |
| 20260903174542 | 84 | 341 | 2.6 | 8.7 | 0.00 | 0.00 | 0.00 | 40 | 1011.4 |
| 20260903173041 | 84 | 355 | 3.5 | 11.3 | 0.00 | 0.00 | 0.00 | 40 | 1011.4 |
| 20260903171541 | 84 | 321 | 1.7 | 10.4 | 0.00 | 0.00 | 0.00 | 41 | 1011.2 |
| 20260903170040 | 85 | 350 | 3.5 | 13.0 | 0.00 | 0.00 | 0.00 | 41 | 1011.1 |
| 20260903164539 | 85 | 328 | 4.3 | 11.3 | 0.00 | 0.00 | 0.00 | 41 | 1010.9 |
| 20260903163042 | 85 | 7 | 5.2 | 11.3 | 0.00 | 0.00 | 0.00 | 41 | 1010.8 |
| 20260903161548 | 85 | 44 | 4.3 | 13.9 | 0.00 | 0.00 | 0.00 | 40 | 1010.6 |
| 20260903160039 | 86 | 64 | 3.5 | 13.9 | 0.00 | 0.00 | 0.00 | 40 | 1010.7 |
| 20260903154537 | 87 | 87 | 3.5 | 8.7 | 0.00 | 0.00 | 0.00 | 39 | 1010.7 |
| 20260903153037 | 87 | 5 | 0.9 | 7.8 | 0.00 | 0.00 | 0.00 | 39 | 1010.5 |
| 20260903151536 | 87 | 12 | 2.6 | 12.2 | 0.00 | 0.00 | 0.00 | 40 | 1010.7 |
| 20260903150036 | 87 | 335 | 5.2 | 11.3 | 0.00 | 0.00 | 0.00 | 40 | 1010.8 |
| 20260903144535 | 88 | 283 | 4.3 | 13.0 | 0.00 | 0.00 | 0.00 | 41 | 1010.9 |
| 20260903143100 | 89 | 318 | 3.5 | 12.2 | 0.00 | 0.00 | 0.00 | 42 | 1010.8 |
| 20260903141533 | 89 | 335 | 4.3 | 11.3 | 0.00 | 0.00 | 0.00 | 38 | 1010.8 |
| 20260903140032 | 90 | 335 | 3.5 | 10.4 | 0.00 | 0.00 | 0.00 | 40 | 1010.7 |
| 20260903134532 | 90 | 47 | 2.6 | 14.8 | 0.00 | 0.00 | 0.00 | 39 | 1010.5 |
| 20260903133031 | 90 | 343 | 5.2 | 13.0 | 0.00 | 0.00 | 0.00 | 38 | 1010.6 |
| 20260903131531 | 91 | 328 | 4.3 | 12.2 | 0.00 | 0.00 | 0.00 | 39 | 1010.8 |
| 20260903130028 | 91 | 94 | 3.5 | 12.2 | 0.00 | 0.00 | 0.00 | 39 | 1010.8 |
| 20260903124533 | 91 | 305 | 2.6 | 13.0 | 0.00 | 0.00 | 0.00 | 40 | 1011.0 |
| 20260903123036 | 91 | 312 | 4.3 | 13.0 | 0.00 | 0.00 | 0.00 | 40 | 1011.1 |
| 20260903121532 | 91 | 360 | 3.5 | 8.7 | 0.00 | 0.00 | 0.00 | 40 | 1011.1 |
| 20260903120024 | 91 | 343 | 3.5 | 11.3 | 0.00 | 0.00 | 0.00 | 40 | 1011.2 |
| 20260903114525 | 91 | 355 | 1.7 | 8.7 | 0.00 | 0.00 | 0.00 | 40 | 1011.4 |
| 20260903113037 | 91 | 308 | 1.7 | 11.3 | 0.00 | 0.00 | 0.00 | 40 | 1011.5 |
| 20260903111522 | 91 | 4 | 2.6 | 8.7 | 0.00 | 0.00 | 0.00 | 40 | 1011.5 |
| 20260903110020 | 91 | 28 | 0.9 | 8.7 | 0.00 | 0.00 | 0.00 | 41 | 1011.5 |
| 20260903104519 | 91 | 340 | 6.1 | 13.0 | 0.00 | 0.00 | 0.00 | 41 | 1011.4 |
| 20260903103018 | 91 | 325 | 5.2 | 12.2 | 0.00 | 0.00 | 0.00 | 41 | 1011.5 |
| 20260903101514 | 91 | 322 | 2.6 | 9.6 | 0.00 | 0.00 | 0.00 | 41 | 1011.5 |
| 20260903100019 | 91 | 73 | 3.5 | 11.3 | 0.00 | 0.00 | 0.00 | 40 | 1011.7 |
| 20260903094511 | 91 | 15 | 4.3 | 12.2 | 0.00 | 0.00 | 0.00 | 41 | 1011.8 |
| 20260903093011 | 90 | 55 | 5.2 | 8.7 | 0.00 | 0.00 | 0.00 | 41 | 1011.9 |
| 20260903091516 | 90 | 330 | 4.3 | 11.3 | 0.00 | 0.00 | 0.00 | 41 | 1012.1 |
| 20260903090005 | 90 | 61 | 4.3 | 14.8 | 0.00 | 0.00 | 0.00 | 42 | 1012.2 |
| 20260903084512 | 89 | 116 | 3.5 | 12.2 | 0.00 | 0.00 | 0.00 | 42 | 1012.2 |
| 20260903083002 | 89 | 21 | 4.3 | 10.4 | 0.00 | 0.00 | 0.00 | 41 | 1012.4 |
| 20260903081504 | 89 | 34 | 0.9 | 8.7 | 0.00 | 0.00 | 0.00 | 42 | 1012.1 |
| 20260903080105 | 88 | 21 | 1.7 | 10.4 | 0.00 | 0.00 | 0.00 | 42 | 1012.1 |
| 20260903074555 | 87 | 73 | 2.6 | 13.0 | 0.00 | 0.00 | 0.00 | 44 | 1012.2 |
| 20260903073051 | 85 | 318 | 1.7 | 7.8 | 0.00 | 0.00 | 0.00 | 48 | 1012.2 |
| 20260903071551 | 84 | 355 | 0.9 | 6.1 | 0.00 | 0.00 | 0.00 | 49 | 1012.2 |
| 20260903070047 | 84 | 77 | 0.9 | 8.7 | 0.00 | 0.00 | 0.00 | 50 | 1012.2 |
| 20260903064543 | 84 | 360 | 2.6 | 8.7 | 0.00 | 0.00 | 0.00 | 51 | 1012.2 |
| 20260903063039 | 84 | 275 | 0.9 | 4.3 | 0.00 | 0.00 | 0.00 | 51 | 1012.1 |
| 20260903061545 | 82 | 331 | 1.7 | 4.3 | 0.00 | 0.00 | 0.00 | 52 | 1012.0 |
| 20260903060058 | 82 | 32 | 2.6 | 7.0 | 0.00 | 0.00 | 0.00 | 56 | 1012.3 |
| 20260903054518 | 81 | 10 | 1.7 | 8.7 | 0.00 | 0.00 | 0.00 | 57 | 1012.2 |
| 20260903053116 | 81 | 355 | 0.9 | 7.0 | 0.00 | 0.00 | 0.00 | 57 | 1012.3 |
| 20260903051532 | 80 | 307 | 0.9 | 7.8 | 0.00 | 0.00 | 0.00 | 56 | 1012.4 |
| 20260903050126 | 80 | 73 | 0.0 | 3.5 | 0.00 | 0.00 | 0.00 | 54 | 1012.4 |
| 20260903044544 | 81 | 95 | 2.6 | 7.8 | 0.00 | 0.00 | 0.00 | 51 | 1012.4 |
| 20260903043136 | 81 | 302 | 0.9 | 6.1 | 0.00 | 0.00 | 0.00 | 50 | 1012.3 |
| 20260903041609 | 81 | 340 | 0.0 | 3.5 | 0.00 | 0.00 | 0.00 | 48 | 1012.0 |
| 20260903040017 | 81 | 104 | 0.0 | 5.2 | 0.00 | 0.00 | 0.00 | 48 | 1012.0 |
| 20260903034520 | 81 | 106 | 0.0 | 3.5 | 0.00 | 0.00 | 0.00 | 46 | 1011.8 |
| 20260903033015 | 81 | 104 | 0.0 | 3.5 | 0.00 | 0.00 | 0.00 | 46 | 1011.8 |
| 20260903031510 | 82 | 65 | 0.0 | 1.7 | 0.00 | 0.00 | 0.00 | 44 | 1011.9 |
| 20260903030007 | 82 | 65 | 0.0 | 2.6 | 0.00 | 0.00 | 0.00 | 44 | 1011.8 |
| 20260903024503 | 82 | 65 | 0.0 | 0.9 | 0.00 | 0.00 | 0.00 | 44 | 1011.9 |
| 20260903023003 | 82 | 66 | 0.0 | 1.7 | 0.00 | 0.00 | 0.00 | 43 | 1011.9 |
| 20260903021502 | 82 | 62 | 0.0 | 0.9 | 0.00 | 0.00 | 0.00 | 43 | 1011.9 |
| 20260903020002 | 82 | 62 | 0.0 | 0.9 | 0.00 | 0.00 | 0.00 | 43 | 1011.9 |
| 20260903014603 | 82 | 62 | 0.0 | 1.7 | 0.00 | 0.00 | 0.00 | 42 | 1011.9 |
| 20260903013059 | 82 | 62 | 0.0 | 3.5 | 0.00 | 0.00 | 0.00 | 42 | 1011.9 |
| 20260903011604 | 82 | 61 | 0.9 | 2.6 | 0.00 | 0.00 | 0.00 | 42 | 1011.9 |
| 20260903010057 | 82 | 62 | 0.9 | 7.0 | 0.00 | 0.00 | 0.00 | 42 | 1011.9 |
| 20260903004557 | 82 | 355 | 0.9 | 3.5 | 0.00 | 0.00 | 0.00 | 41 | 1011.9 |
| 20260903003055 | 82 | 46 | 0.0 | 4.3 | 0.00 | 0.00 | 0.00 | 41 | 1012.0 |
| 20260903001554 | 82 | 355 | 2.6 | 7.0 | 0.00 | 0.00 | 0.00 | 41 | 1011.9 |
| 20260903000054 | 82 | 96 | 1.7 | 7.0 | 0.00 | 0.00 | 0.00 | 42 | 1012.0 |
| 20260902234604 | 83 | 92 | 0.0 | 6.1 | 0.00 | 0.00 | 0.00 | 41 | 1011.9 |
| 20260902233052 | 83 | 76 | 1.7 | 7.0 | 0.00 | 0.00 | 0.00 | 41 | 1012.1 |
| 20260902231551 | 83 | 104 | 1.7 | 8.7 | 0.00 | 0.00 | 0.00 | 40 | 1012.0 |
| 20260902230050 | 83 | 20 | 0.9 | 7.0 | 0.00 | 0.00 | 0.00 | 40 | 1012.1 |
| 20260902224548 | 83 | 360 | 1.7 | 7.0 | 0.00 | 0.00 | 0.00 | 40 | 1012.2 |
| 20260902223048 | 83 | 71 | 0.9 | 3.5 | 0.00 | 0.00 | 0.00 | 41 | 1012.3 |
| 20260902221544 | 83 | 14 | 0.0 | 0.9 | 0.00 | 0.00 | 0.00 | 41 | 1012.5 |
| 20260902220042 | 83 | 14 | 0.0 | 1.7 | 0.00 | 0.00 | 0.00 | 40 | 1012.4 |
| 20260902214541 | 84 | 14 | 0.0 | 1.7 | 0.00 | 0.00 | 0.00 | 40 | 1012.5 |
| 20260902213039 | 84 | 14 | 0.0 | 1.7 | 0.00 | 0.00 | 0.00 | 39 | 1012.6 |
| 20260902211537 | 84 | 14 | 0.0 | 1.7 | 0.00 | 0.00 | 0.00 | 39 | 1012.6 |
| 20260902210035 | 84 | 14 | 0.0 | 0.9 | 0.00 | 0.00 | 0.00 | 38 | 1012.6 |
| 20260902204535 | 84 | 14 | 0.0 | 0.9 | 0.00 | 0.00 | 0.00 | 38 | 1012.8 |
| 20260902203033 | 85 | 10 | 0.0 | 1.7 | 0.00 | 0.00 | 0.00 | 37 | 1012.7 |
| 20260902201535 | 85 | 14 | 0.9 | 2.6 | 0.00 | 0.00 | 0.00 | 37 | 1012.8 |
| 20260902200033 | 85 | 79 | 0.0 | 1.7 | 0.00 | 0.00 | 0.00 | 37 | 1012.8 |
| 20260902194533 | 85 | 79 | 0.0 | 2.6 | 0.00 | 0.00 | 0.00 | 36 | 1012.9 |